Tracking 29892 objects as of 21-Nov-2024
HD Live streaming from Space Station
objects crossing your sky now

SL-12 R/B(2)

Track SL-12 R/B(2) now!


NORAD ID: 12851
Int'l Code: 1981-061F
Perigee: 35,583.2 km
Apogee: 35,595.7 km
Inclination: 7.4 °
Period: 1,425.7 minutes
Semi major axis: 41960 km
RCS: 2.0417 m2 (large)
Launch date: June 26, 1981
Source: Commonwealth of Independent States (former USSR) (CIS)
Launch site: TYURATAM MISSILE AND SPACE COMPLEX (TTMTR)

Note: This is a ROCKET BODY
Your satellite tracking list
Your tracking list is empty




NASA's NSSDC Master Catalog

Two Line Element Set (TLE):
1 12851U 81061F   24325.71964640 -.00000055  00000-0  00000-0 0  9997
2 12851   7.3668 296.0858 0001486  48.3595 312.3654  1.01005002 41930
Source of the keplerian elements: AFSPC